| time (UTC) | temp C | wind direction | speed KPH | gust KPH | rain 1hr cm | rain 24hr cm | rain mn cm | humidity % | barometer mb |
| 20260902230027 | 26 | 281 | 4.8 | 11.3 | 0.18 | 0.25 | 0.25 | 87 | 1013.0 |
| 20260902224516 | 27 | 321 | 3.2 | 8.0 | 0.23 | 0.25 | 0.25 | 87 | 1013.1 |
| 20260902223014 | 27 | 242 | 11.3 | 24.1 | 0.15 | 0.18 | 0.18 | 83 | 1013.1 |
| 20260902221518 | 28 | 238 | 12.9 | 25.7 | 0.05 | 0.08 | 0.08 | 85 | 1012.8 |
| 20260902220012 | 28 | 290 | 17.7 | 33.8 | 0.05 | 0.08 | 0.08 | 84 | 1012.9 |
| 20260902214511 | 29 | 288 | 29.0 | 53.1 | 0.03 | 0.03 | 0.03 | 81 | 1012.9 |
| 20260902213013 | 31 | 279 | 3.2 | 8.0 | 0.03 | 0.03 | 0.03 | 78 | 1012.5 |
| 20260902211511 | 30 | 266 | 4.8 | 9.7 | 0.03 | 0.03 | 0.03 | 83 | 1012.6 |
| 20260902210011 | 30 | 325 | 4.8 | 16.1 | 0.03 | 0.03 | 0.03 | 77 | 1012.9 |
| 20260902204509 | 31 | 302 | 16.1 | 30.6 | 0.00 | 0.00 | 0.00 | 71 | 1013.3 |
| 20260902203009 | 31 | 283 | 16.1 | 33.8 | 0.00 | 0.00 | 0.00 | 71 | 1013.4 |
| 20260902201510 | 32 | 232 | 6.4 | 19.3 | 0.00 | 0.00 | 0.00 | 69 | 1013.3 |
| 20260902200008 | 33 | 168 | 12.9 | 17.7 | 0.00 | 0.00 | 0.00 | 65 | 1013.2 |
| 20260902194509 | 33 | 151 | 11.3 | 19.3 | 0.00 | 0.00 | 0.00 | 68 | 1012.9 |
| 20260902193006 | 33 | 140 | 11.3 | 17.7 | 0.00 | 0.00 | 0.00 | 67 | 1012.9 |
| 20260902191508 | 33 | 179 | 9.7 | 16.1 | 0.00 | 0.00 | 0.00 | 69 | 1013.1 |
| 20260902190005 | 33 | 158 | 11.3 | 16.1 | 0.00 | 0.00 | 0.00 | 69 | 1013.0 |
| 20260902184503 | 32 | 165 | 14.5 | 20.9 | 0.00 | 0.00 | 0.00 | 70 | 1013.4 |
| 20260902183007 | 32 | 170 | 12.9 | 19.3 | 0.00 | 0.00 | 0.00 | 69 | 1013.6 |
| 20260902181502 | 32 | 171 | 14.5 | 17.7 | 0.00 | 0.00 | 0.00 | 70 | 1013.8 |
| 20260902180000 | 32 | 161 | 16.1 | 20.9 | 0.00 | 0.00 | 0.00 | 71 | 1013.9 |
| 20260902174559 | 33 | 156 | 9.7 | 17.7 | 0.00 | 0.00 | 0.00 | 72 | 1013.6 |
| 20260902173059 | 32 | 149 | 11.3 | 14.5 | 0.00 | 0.00 | 0.00 | 70 | 1013.5 |
| 20260902171558 | 32 | 148 | 11.3 | 19.3 | 0.00 | 0.00 | 0.00 | 72 | 1013.5 |
| 20260902170057 | 32 | 155 | 9.7 | 16.1 | 0.00 | 0.00 | 0.00 | 71 | 1013.6 |
| 20260902164555 | 32 | 130 | 9.7 | 14.5 | 0.00 | 0.00 | 0.00 | 72 | 1013.4 |
| 20260902163102 | 32 | 107 | 9.7 | 16.1 | 0.00 | 0.00 | 0.00 | 72 | 1013.7 |
| 20260902161556 | 32 | 121 | 8.0 | 12.9 | 0.00 | 0.00 | 0.00 | 71 | 1013.7 |
| 20260902160057 | 32 | 135 | 6.4 | 16.1 | 0.00 | 0.00 | 0.00 | 74 | 1013.6 |
| 20260902154549 | 32 | 138 | 6.4 | 17.7 | 0.00 | 0.00 | 0.00 | 73 | 1013.6 |
| 20260902153048 | 31 | 156 | 6.4 | 17.7 | 0.00 | 0.00 | 0.00 | 73 | 1013.7 |
| 20260902151545 | 30 | 151 | 8.0 | 14.5 | 0.00 | 0.00 | 0.00 | 76 | 1013.5 |
| 20260902150045 | 31 | 113 | 6.4 | 22.5 | 0.00 | 0.00 | 0.00 | 74 | 1013.4 |
| 20260902144541 | 30 | 133 | 4.8 | 12.9 | 0.00 | 0.00 | 0.00 | 78 | 1013.6 |
| 20260902143041 | 28 | 22 | 3.2 | 9.7 | 0.00 | 0.00 | 0.00 | 81 | 1013.3 |
| 20260902141538 | 27 | 350 | 4.8 | 9.7 | 0.00 | 0.00 | 0.00 | 84 | 1013.5 |
| 20260902140038 | 26 | 355 | 6.4 | 9.7 | 0.00 | 0.00 | 0.00 | 86 | 1013.3 |
| 20260902134539 | 26 | 348 | 4.8 | 8.0 | 0.00 | 0.00 | 0.00 | 87 | 1013.3 |
| 20260902133037 | 25 | 355 | 6.4 | 9.7 | 0.00 | 0.00 | 0.00 | 88 | 1013.1 |
| 20260902131536 | 25 | 347 | 4.8 | 8.0 | 0.00 | 0.00 | 0.00 | 88 | 1012.9 |
| 20260902130036 | 25 | 360 | 4.8 | 8.0 | 0.00 | 0.00 | 0.00 | 88 | 1012.7 |
| 20260902124535 | 25 | 360 | 4.8 | 9.7 | 0.00 | 0.00 | 0.00 | 88 | 1012.5 |
| 20260902123041 | 25 | 355 | 6.4 | 9.7 | 0.00 | 0.00 | 0.00 | 88 | 1012.5 |
| 20260902121533 | 26 | 351 | 4.8 | 9.7 | 0.00 | 0.00 | 0.00 | 88 | 1012.6 |
| 20260902120035 | 26 | 5 | 4.8 | 8.0 | 0.00 | 0.00 | 0.00 | 88 | 1012.4 |
| 20260902114536 | 26 | 340 | 4.8 | 8.0 | 0.00 | 0.00 | 0.00 | 88 | 1012.5 |
| 20260902113034 | 26 | 348 | 4.8 | 9.7 | 0.00 | 0.00 | 0.00 | 88 | 1012.4 |
| 20260902111525 | 27 | 333 | 4.8 | 9.7 | 0.00 | 0.00 | 0.00 | 88 | 1012.6 |
| 20260902104520 | 27 | 340 | 4.8 | 8.0 | 0.00 | 0.00 | 0.00 | 87 | 1012.6 |
| 20260902103119 | 27 | 321 | 4.8 | 6.4 | 0.00 | 0.00 | 0.00 | 86 | 1012.8 |
| 20260902101521 | 27 | 331 | 3.2 | 6.4 | 0.00 | 0.00 | 0.00 | 85 | 1012.8 |
| 20260902100104 | 27 | 347 | 1.6 | 3.2 | 0.00 | 0.00 | 0.00 | 84 | 1013.0 |
| 20260902094510 | 28 | 333 | 3.2 | 4.8 | 0.00 | 0.00 | 0.00 | 83 | 1013.1 |
| 20260902093006 | 28 | 317 | 0.0 | 0.0 | 0.00 | 0.00 | 0.00 | 81 | 1013.3 |
| 20260902091505 | 28 | 294 | 0.0 | 0.0 | 0.00 | 0.00 | 0.00 | 80 | 1013.3 |
| 20260902090004 | 29 | 254 | 0.0 | 4.8 | 0.00 | 0.00 | 0.00 | 81 | 1013.5 |
| 20260902084502 | 29 | 238 | 0.0 | 4.8 | 0.00 | 0.00 | 0.00 | 80 | 1013.6 |
| 20260902081605 | 29 | 277 | 3.2 | 9.7 | 0.00 | 0.00 | 0.00 | 80 | 1013.7 |
| 20260902080057 | 29 | 250 | 1.6 | 9.7 | 0.00 | 0.00 | 0.00 | 80 | 1013.9 |
| 20260902074556 | 30 | 275 | 0.0 | 11.3 | 0.00 | 0.00 | 0.00 | 79 | 1014.0 |
| 20260902073058 | 30 | 258 | 3.2 | 11.3 | 0.00 | 0.00 | 0.00 | 79 | 1014.1 |
| 20260902071554 | 30 | 225 | 6.4 | 9.7 | 0.00 | 0.00 | 0.00 | 78 | 1014.1 |
| 20260902070052 | 30 | 250 | 4.8 | 11.3 | 0.00 | 0.00 | 0.00 | 79 | 1014.1 |
| 20260902064600 | 30 | 226 | 3.2 | 11.3 | 0.00 | 0.00 | 0.00 | 79 | 1014.2 |
| 20260902063053 | 30 | 250 | 3.2 | 9.7 | 0.00 | 0.00 | 0.00 | 79 | 1014.2 |
| 20260902061604 | 30 | 254 | 6.4 | 14.5 | 0.00 | 0.00 | 0.00 | 80 | 1014.3 |
| 20260902060056 | 30 | 246 | 6.4 | 14.5 | 0.00 | 0.00 | 0.00 | 79 | 1014.3 |
| 20260902054553 | 30 | 247 | 6.4 | 12.9 | 0.00 | 0.00 | 0.00 | 77 | 1014.1 |
| 20260902053050 | 30 | 298 | 1.6 | 8.0 | 0.00 | 0.00 | 0.00 | 75 | 1014.4 |
| 20260902051549 | 30 | 292 | 0.0 | 6.4 | 0.00 | 0.00 | 0.00 | 75 | 1014.4 |
| 20260902044548 | 30 | 282 | 1.6 | 6.4 | 0.00 | 0.00 | 0.00 | 74 | 1014.4 |
| 20260902043050 | 30 | 240 | 4.8 | 11.3 | 0.00 | 0.00 | 0.00 | 74 | 1014.4 |
| 20260902041546 | 30 | 252 | 3.2 | 8.0 | 0.00 | 0.00 | 0.00 | 73 | 1014.2 |
| 20260902040045 | 30 | 267 | 3.2 | 9.7 | 0.00 | 0.00 | 0.00 | 74 | 1014.0 |
| 20260902034544 | 30 | 248 | 4.8 | 12.9 | 0.00 | 0.00 | 0.00 | 75 | 1013.7 |
| 20260902033046 | 30 | 247 | 8.0 | 16.1 | 0.00 | 0.00 | 0.00 | 76 | 1013.5 |
| 20260902031543 | 30 | 263 | 8.0 | 14.5 | 0.00 | 0.00 | 0.00 | 75 | 1013.3 |
| 20260902030043 | 30 | 248 | 3.2 | 11.3 | 0.00 | 0.00 | 0.00 | 75 | 1013.0 |
| 20260902024543 | 30 | 259 | 6.4 | 11.3 | 0.00 | 0.00 | 0.00 | 74 | 1012.8 |
| 20260902023046 | 30 | 242 | 6.4 | 12.9 | 0.00 | 0.00 | 0.00 | 73 | 1012.4 |
| 20260902020041 | 31 | 261 | 4.8 | 12.9 | 0.00 | 0.00 | 0.00 | 73 | 1012.0 |
| 20260902014544 | 31 | 286 | 6.4 | 11.3 | 0.00 | 0.00 | 0.00 | 73 | 1012.1 |
| 20260902013041 | 31 | 259 | 3.2 | 12.9 | 0.00 | 0.00 | 0.00 | 72 | 1012.1 |
| 20260902011548 | 31 | 275 | 3.2 | 12.9 | 0.00 | 0.00 | 0.00 | 71 | 1011.9 |
| 20260902010039 | 31 | 273 | 6.4 | 12.9 | 0.00 | 0.00 | 0.00 | 70 | 1011.9 |
| 20260902004539 | 32 | 264 | 6.4 | 14.5 | 0.00 | 0.00 | 0.00 | 67 | 1011.7 |
| 20260902003039 | 32 | 234 | 6.4 | 14.5 | 0.00 | 0.00 | 0.00 | 64 | 1011.6 |
| 20260902001542 | 33 | 251 | 8.0 | 11.3 | 0.00 | 0.00 | 0.00 | 63 | 1011.4 |
| 20260902000045 | 33 | 238 | 6.4 | 12.9 | 0.00 | 0.00 | 0.00 | 61 | 1011.2 |
| 20260901234537 | 33 | 246 | 8.0 | 14.5 | 0.00 | 0.00 | 0.00 | 60 | 1011.2 |
| 20260901233037 | 34 | 265 | 6.4 | 16.1 | 0.00 | 0.00 | 0.00 | 60 | 1011.2 |
| 20260901231536 | 34 | 232 | 8.0 | 14.5 | 0.00 | 0.00 | 0.00 | 59 | 1011.0 |